Weather observations for the past three days for
Du Bois - Jefferson County Airport
Metric (Imperial)
Date Time (edt) Wind (kph) Vis. (km) Weather Sky Cond. Temperature (ºC) Relative Humidity Wind Chill (°C) Heat Index (°C) Pressure Precipitation (cm)
Air Dwpt 6 hour altimeter (cm) sea level (mb) 1 hr 3 hr 6 hr
Max. Min.
25 01:53 SE 6 16.09 Fair CLR 16.7 7.8 24.4 16.1 56% 75.97 1011.4
25 00:53 SE 6 16.09 Fair CLR 16.7 7.8 56% 75.97 1011.7
24 23:53 E 9 16.09 Fair CLR 17.8 7.8 52% 76 1011.8
24 22:53 NE 9 16.09 Fair CLR 18.3 7.8 51% 76 1011.9
24 21:53 N 13 16.09 Fair CLR 20.6 8.9 47% 75.97 1011.7
24 20:53 NW 7 16.09 Fair CLR 21.7 10 47% 75.95 1011.1
24 19:53 NW 6 16.09 Fair CLR 24.4 9.4 26.7 23.9 39% 25 75.9 1010.6
24 18:53 NW 9 16.09 Mostly Cloudy BKN070 26.1 10 36% 26 75.9 1010.6
24 17:53 SW 9 16.09 Fair CLR 26.1 11.1 39% 26 75.87 1010.5
24 16:53 W 17 16.09 A Few Clouds FEW070 26.7 11.1 38% 27 75.9 1010.6
24 15:53 W 13 16.09 A Few Clouds FEW070 26.7 10 35% 26 75.95 1011.5
24 14:53 NW 13 G 28 16.09 Partly Cloudy SCT070 25.6 9.4 36% 26 75.97 1011.8
24 13:53 Vrbl 11 16.09 A Few Clouds FEW065 25.6 10 26.1 14.4 37% 26 75.97 1011.9
24 12:53 W 15 16.09 A Few Clouds FEW065 25.6 9.4 36% 26 76 1012.0
24 11:53 W 11 16.09 A Few Clouds FEW060 24.4 8.3 36% 25 76.05 1012.5
24 10:53 Calm 16.09 Fair CLR 23.3 8.9 40% 76.05 1012.8
24 09:53 SE 7 16.09 Fair CLR 21.7 10 47% 76.05 1012.8
24 08:53 Calm 16.09 Fair CLR 20.6 11.7 57% 76.07 1013.1
24 07:53 E 7 16.09 Fair CLR 14.4 10 15.6 11.7 75% 76.07 1013.2
24 06:53 Calm 16.09 Fair CLR 14.4 9.4 72% 76.05 1013.0
24 05:53 Calm 16.09 Fair CLR 12.2 8.3 77% 76.02 1012.8
24 04:53 E 6 16.09 Fair CLR 11.7 8.3 80% 76.02 1012.6
24 03:53 Calm 16.09 Fair CLR 13.9 8.3 69% 76 1012.2
24 02:53 Calm 16.09 Fair CLR 14.4 7.8 65% 76.02 1012.4
24 01:53 Calm 16.09 Fair CLR 13.9 8.3 21.7 13.9 69% 76.05 1012.9
24 00:53 Calm 16.09 Fair CLR 16.1 7.8 58% 76.07 1013.1
23 23:53 Calm 16.09 Fair CLR 17.2 9.4 60% 76.1 1013.3
23 22:53 Calm 16.09 Fair CLR 17.8 8.9 56% 76.07 1013.2
23 21:53 Calm 16.09 Partly Cloudy SCT065 17.8 10 60% 76.05 1012.9
23 20:53 SW 6 16.09 Fair CLR 18.3 10 59% 76.02 1012.7
23 19:53 W 11 16.09 Fair CLR 21.7 8.9 25 21.7 44% 76 1012.3
23 18:53 SW 13 16.09 Fair CLR 23.3 8.9 40% 76.02 1012.1
23 17:53 W 17 16.09 Fair CLR 24.4 8.3 36% 25 76.02 1012.3
23 16:53 SW 17 16.09 Fair CLR 24.4 8.9 37% 25 76.05 1012.6
23 15:53 SW 19 G 39 16.09 Fair CLR 25 10 39% 26 76.07 1012.9
23 14:53 Calm 16.09 Fair CLR 24.4 8.3 36% 25 76.1 1013.2
23 13:53 SW 15 16.09 Fair CLR 23.9 8.3 24.4 18.3 37% 25 76.15 1013.7
23 12:53 W 11 16.09 Fair CLR 23.3 9.4 41% 76.15 1013.8
23 11:53 SW 9 16.09 Fair CLR 22.8 10.6 46% 76.15 1013.9
23 10:53 Vrbl 7 16.09 Fair CLR 22.2 11.7 52% 76.17 1014.2
23 09:53 N 13 16.09 Fair CLR 20.6 11.7 57% 76.17 1014.3
23 08:53 NW 11 16.09 Mostly Cloudy BKN110 19.4 11.7 61% 76.17 1014.4
23 07:53 N 6 16.09 Partly Cloudy SCT110 18.3 13.9 20.6 17.8 76% 76.12 1013.5 0.03
23 06:53 N 13 16.09 Mostly Cloudy SCT011 BKN021 BKN100 18.3 14.4 78% 76.1 1013.3
23 05:53 W 11 16.09 A Few Clouds FEW014 18.9 15.6 81% 76.02 1012.1
23 04:53 W 9 16.09 A Few Clouds FEW120 20 16.7 81% 75.92 1010.7 0.03 0.03
23 03:53 W 11 16.09 Light Rain BKN090 OVC110 20 16.7 81% 75.92 1011.0
23 02:53 W 13 16.09 Partly Cloudy FEW019 SCT065 20.6 16.7 78% 75.92 1010.8
23 01:53 S 6 16.09 A Few Clouds FEW026 FEW034 21.1 16.1 25 20.6 73% 75.9 1010.2
23 00:53 SW 11 16.09 Fair CLR 21.1 16.1 73% 75.97 1011.0
22 23:53 SW 17 16.09 A Few Clouds FEW033 22.2 15.6 66% 75.97 1011.1
22 22:53 SW 7 16.09 Fair CLR 22.8 15 62% 75.95 1010.9
22 21:53 SW 7 16.09 A Few Clouds FEW041 22.2 15 64% 75.95 1010.8
22 20:53 SW 9 16.09 A Few Clouds FEW050 22.2 15.6 66% 75.92 1010.8
22 19:53 SW 15 16.09 A Few Clouds FEW070 25 16.1 28.3 20.6 58% 26 75.9 1010.4
22 18:53 SW 13 G 39 16.09 A Few Clouds FEW080 26.1 16.1 54% 27 75.87 1010.0
22 17:53 SW 11 14.48 Fair CLR 25.6 17.2 60% 27 75.87 1010.2
22 16:53 Calm 16.09 Partly Cloudy SCT120 23.9 18.3 71% 25 75.92 1011.1
22 15:53 Vrbl 7 16.09 Thunderstorm SCT047 SCT060 SCT080 23.3 17.8 71% 75.97 1011.5
22 14:53 S 13 16.09 Mostly Cloudy BKN050 BKN060 27.2 16.1 51% 28 75.92 1010.7
22 13:53 SW 31 G 44 16.09 Fair CLR 28.3 16.1 28.3 21.7 48% 29 76 1011.5
22 12:53 SW 26 G 41 16.09 Partly Cloudy SCT045 SCT060 27.2 16.1 51% 28 76.02 1012.1
22 11:53 SW 28 G 39 16.09 Partly Cloudy SCT045 26.7 15.6 51% 27 76.05 1012.1
22 10:53 SW 19 G 30 16.09 Fair CLR 26.7 16.1 52% 27 76.05 1012.4
22 09:53 SW 11 16.09 Partly Cloudy SCT075 25 15.6 56% 26 76.07 1012.5
22 08:53 Vrbl 9 16.09 Fair CLR 23.3 15.6 62% 76.1 1013.0
22 07:53 SW 7 16.09 A Few Clouds FEW055 21.7 14.4 21.7 16.7 63% 76.1 1013.0
22 06:53 S 7 16.09 Fair CLR 20 13.9 68% 76.07 1012.7
22 05:53 S 6 16.09 Fair CLR 18.9 14.4 75% 76.07 1012.7
22 04:53 E 9 16.09 Fair CLR 16.7 13.9 84% 76.05 1012.7
22 03:53 SW 7 16.09 Fair CLR 19.4 14.4 73% 76.07 1012.9
22 02:53 SW 6 16.09 Fair CLR 20 14.4 70% 76.07 1012.5
Date Time (edt) Wind (kph) Vis. (km) Weather Sky Cond. Air Dwpt Max. Min. Relative Humidity Wind Chill (°C) Heat Index (°C) altimeter (cm) sea level (mb) 1 hr 3 hr 6 hr
6 hour
Temperature (ºC) Pressure Precipitation (cm)